Location: Maiden
(35.5760°N, 81.2120°W)
Time: 02:32:16
(UTC-04:00)

Vanguard 2 - Pass Details

Date: 12 August 2020
Orbit: 553 x 2937 km, 32.9° (Epoch: 20 September)

Event Time Altitude Azimuth Distance (km) Brightness Sun altitude
Rises 00:33:10 0° 274° (W) 6,534 12.5 -37.8°
Reaches altitude 10° 00:37:54 10° 273° (W) 5,287 11.9 -38.1°
Enters shadow 00:50:29 63° 245° (WSW) 2,121 9.4 -38.7°
Maximum altitude 00:52:29 74° 192° (SSW) 1,890 - -38.8°
Drops below altitude 10° 01:01:09 10° 109° (ESE) 3,295 - -39.1°
Sets 01:03:27 0° 107° (ESE) 4,015 - -39.2°
